Tacoma Narrows, WA
on Thursday, January 10, 2013

Thursday
Previous Day Next Day
Daily Summary
 ActualAverageRecord
Temperature
Mean Temperature °F / °C °F / °C  
Max Temperature 37°F / 3°C 43°F / 6°C 55°F / 12°C (2002)
Min Temperature 33°F / 1°C 36°F / 2°C 28°F / -2°C (1998)
Degree Days
Heating Degree Days 30    
Moisture
Dew Point 32°F / 0°C   
Average Humidity 86    
Maximum Humidity 93    
Minimum Humidity 79    
Precipitation
Precipitation 0.02 in / 0.51 cm in / cm in / cm ()
Wind
Wind Speed 5 mph / 8 km/h   
Max Wind Speed 9 mph / 14 km/h   
Max Gust Speed mph / km/h   
Visibility 10 miles / 16 kilometers   
Events Rain   
Averages and records for this station are not official NWS values.
Key: T is trace of precipitation, MM is missing value
Source: NWS Daily Summary
Seasonal Weather Averages
Time(PST)TemperatureDew PointHumidity Pressure Visibility Wind DirectionWind SpeedGust SpeedPrecipitationEvents Conditions
12:14 AM 35.6°F / 2.0°C 32.0°F / 0.0°C 87% 29.95 in / 1014.1 hPa 10.0 miles / 16.1 kilometers SSW 6.9 mph / 11.1 km/h - N/A   Overcast
12:53 AM 36.0°F / 2.2°C 32.0°F / 0.0°C 86% 29.96 in / 1014.4 hPa 10.0 miles / 16.1 kilometers SSW 9.2 mph / 14.8 km/h - N/A   Overcast
1:45 AM 35.6°F / 2.0°C 32.0°F / 0.0°C 87% 29.96 in / 1014.4 hPa 10.0 miles / 16.1 kilometers SSW 6.9 mph / 11.1 km/h - N/A   Overcast
1:53 AM 36.0°F / 2.2°C 32.0°F / 0.0°C 86% 29.98 in / 1015.0 hPa 10.0 miles / 16.1 kilometers SSW 6.9 mph / 11.1 km/h - N/A   Overcast
2:15 AM 35.6°F / 2.0°C 30.2°F / -1.0°C 81% 29.97 in / 1014.8 hPa 10.0 miles / 16.1 kilometers SSW 4.6 mph / 7.4 km/h - N/A   Scattered Clouds
2:53 AM 34.0°F / 1.1°C 30.9°F / -0.6°C 89% 29.98 in / 1015.2 hPa 10.0 miles / 16.1 kilometers SSW 8.1 mph / 13.0 km/h - N/A   Partly Cloudy
3:20 AM 35.6°F / 2.0°C 32.0°F / 0.0°C 87% 29.98 in / 1015.1 hPa 10.0 miles / 16.1 kilometers SSW 6.9 mph / 11.1 km/h - N/A   Mostly Cloudy
3:53 AM 35.1°F / 1.7°C 32.0°F / 0.0°C 89% 29.99 in / 1015.6 hPa 10.0 miles / 16.1 kilometers South 4.6 mph / 7.4 km/h - N/A   Overcast
4:13 AM 35.6°F / 2.0°C 32.0°F / 0.0°C 87% 29.98 in / 1015.1 hPa 10.0 miles / 16.1 kilometers South 4.6 mph / 7.4 km/h - N/A   Overcast
4:45 AM 35.6°F / 2.0°C 32.0°F / 0.0°C 87% 29.99 in / 1015.5 hPa 10.0 miles / 16.1 kilometers South 4.6 mph / 7.4 km/h - N/A   Overcast
4:53 AM 35.1°F / 1.7°C 32.0°F / 0.0°C 89% 30.00 in / 1015.8 hPa 10.0 miles / 16.1 kilometers South 3.5 mph / 5.6 km/h - N/A   Overcast
5:04 AM 35.6°F / 2.0°C 32.0°F / 0.0°C 87% 29.99 in / 1015.5 hPa 10.0 miles / 16.1 kilometers SSW 3.5 mph / 5.6 km/h - N/A   Overcast
5:53 AM 36.0°F / 2.2°C 33.1°F / 0.6°C 89% 30.01 in / 1016.3 hPa 10.0 miles / 16.1 kilometers South 3.5 mph / 5.6 km/h - N/A   Overcast
6:53 AM 35.6°F / 2.0°C 32.0°F / 0.0°C 87% 30.02 in / 1016.5 hPa 10.0 miles / 16.1 kilometers SW 4.6 mph / 7.4 km/h - N/A   Overcast
7:53 AM 36.0°F / 2.2°C 32.0°F / 0.0°C 86% 30.06 in / 1017.9 hPa 10.0 miles / 16.1 kilometers SW 4.6 mph / 7.4 km/h - N/A   Overcast
8:53 AM 36.0°F / 2.2°C 33.1°F / 0.6°C 89% 30.09 in / 1018.7 hPa 10.0 miles / 16.1 kilometers West 3.5 mph / 5.6 km/h - N/A   Overcast
9:53 AM 37.0°F / 2.8°C 33.1°F / 0.6°C 86% 30.09 in / 1018.8 hPa 10.0 miles / 16.1 kilometers Calm Calm - N/A   Overcast
9:54 AM 37.0°F / 2.8°C 33.1°F / 0.6°C 86% 30.09 in / 1018.8 hPa 10.0 miles / 16.1 kilometers Calm Calm - N/A   Overcast
10:04 AM 35.6°F / 2.0°C 33.8°F / 1.0°C 93% 30.08 in / 1018.5 hPa 10.0 miles / 16.1 kilometers NW 3.5 mph / 5.6 km/h - N/A   Overcast
10:53 AM 37.0°F / 2.8°C 33.1°F / 0.6°C 86% 30.09 in / 1018.9 hPa 10.0 miles / 16.1 kilometers WSW 3.5 mph / 5.6 km/h - N/A   Overcast
11:16 AM 37.4°F / 3.0°C 32.0°F / 0.0°C 81% 30.08 in / 1018.5 hPa 10.0 miles / 16.1 kilometers Variable 4.6 mph / 7.4 km/h - N/A   Overcast
11:53 AM 37.0°F / 2.8°C 32.0°F / 0.0°C 82% 30.09 in / 1018.8 hPa 10.0 miles / 16.1 kilometers WNW 3.5 mph / 5.6 km/h - N/A   Overcast
12:53 PM 37.9°F / 3.3°C 32.0°F / 0.0°C 79% 30.07 in / 1018.1 hPa 10.0 miles / 16.1 kilometers WSW 5.8 mph / 9.3 km/h - N/A   Overcast
1:53 PM 37.9°F / 3.3°C 32.0°F / 0.0°C 79% 30.09 in / 1018.7 hPa 10.0 miles / 16.1 kilometers WSW 4.6 mph / 7.4 km/h - N/A   Overcast
2:53 PM 37.9°F / 3.3°C 33.1°F / 0.6°C 83% 30.09 in / 1018.9 hPa 8.0 miles / 12.9 kilometers Calm Calm - 0.01 in / 0.3 cm Rain Light Rain
3:53 PM 37.0°F / 2.8°C 34.0°F / 1.1°C 89% 30.10 in / 1019.1 hPa 7.0 miles / 11.3 kilometers Calm Calm - 0.00 in / 0.0 cm Rain Light Rain
4:53 PM 37.0°F / 2.8°C 32.0°F / 0.0°C 82% 30.10 in / 1019.3 hPa 10.0 miles / 16.1 kilometers NW 3.5 mph / 5.6 km/h - 0.01 in / 0.3 cm   Overcast
4:58 PM 37.4°F / 3.0°C 32.0°F / 0.0°C 81% 30.09 in / 1018.8 hPa 10.0 miles / 16.1 kilometers West 3.5 mph / 5.6 km/h - N/A   Overcast
5:53 PM 36.0°F / 2.2°C 32.0°F / 0.0°C 86% 30.10 in / 1019.1 hPa 10.0 miles / 16.1 kilometers NW 4.6 mph / 7.4 km/h - 0.00 in / 0.0 cm   Overcast
6:53 PM 36.0°F / 2.2°C 30.9°F / -0.6°C 82% 30.10 in / 1019.1 hPa 10.0 miles / 16.1 kilometers Calm Calm - N/A   Overcast
7:53 PM 35.1°F / 1.7°C 30.9°F / -0.6°C 85% 30.11 in / 1019.5 hPa 10.0 miles / 16.1 kilometers WNW 6.9 mph / 11.1 km/h - 0.00 in / 0.0 cm   Overcast
8:43 PM 33.8°F / 1.0°C 32.0°F / 0.0°C 93% 30.09 in / 1018.8 hPa 10.0 miles / 16.1 kilometers Calm Calm - 0.00 in / 0.0 cm   Overcast
8:53 PM 34.0°F / 1.1°C 32.0°F / 0.0°C 92% 30.11 in / 1019.5 hPa 10.0 miles / 16.1 kilometers Calm Calm - 0.00 in / 0.0 cm   Overcast
9:53 PM 34.0°F / 1.1°C 30.9°F / -0.6°C 89% 30.11 in / 1019.6 hPa 10.0 miles / 16.1 kilometers Calm Calm - N/A   Overcast
10:53 PM 34.0°F / 1.1°C 32.0°F / 0.0°C 92% 30.12 in / 1020.0 hPa 10.0 miles / 16.1 kilometers NW 3.5 mph / 5.6 km/h - N/A   Overcast
11:53 PM 34.0°F / 1.1°C 30.0°F / -1.1°C 85% 30.13 in / 1020.2 hPa 10.0 miles / 16.1 kilometers Calm Calm - N/A   Overcast
Moon Phase
Jan. 10 Jan. 11 Jan. 18 Jan. 26 Feb. 03
Sunrise:07:55 AM (PST) Moon Rise:06:39 AM (PST)1/10
Sunset:04:41 PM (PST) Moon Set:03:56 PM (PST)1/10

Copyright © 2014 The Weather Underground, Inc.